Weather observations for the past three days for
Frederick Municipal Airport
Imperial (Metric)
Date Time (edt) Wind (mph) Vis. (mi.) Weather Sky Cond. Temperature (ºF) Relative Humidity Wind Chill (°F) Heat Index (°F) Pressure Precipitation (in)
Air Dwpt 6 hour altimeter (in) sea level (mb) 1 hr 3 hr 6 hr
Max. Min.
18 20:47 Calm 10.00 Fair CLR 80.6 66.2 62% 83 29.98 0.0
18 19:47 Calm 10.00 Partly Cloudy SCT040 86 62.6 46% 87 29.95 0.0
18 18:47 Calm 10.00 Partly Cloudy SCT040 86 62.6 46% 87 29.95 0.0
18 17:47 Calm 10.00 Partly Cloudy SCT040 86 62.6 46% 87 29.95 0.0
18 16:47 Calm 10.00 Partly Cloudy SCT040 86 62.6 46% 87 29.95 0.0
18 15:47 Calm 10.00 Partly Cloudy SCT043 87.8 64.4 46% 89 29.97 0.0
18 14:47 Calm 10.00 Partly Cloudy SCT040 SCT045 84.2 64.4 51% 86 29.98 0.0
18 13:47 Calm 10.00 Mostly Cloudy BKN040 BKN120 68 64.4 88% 29.98 0.0
18 12:47 NE 5 10.00 Fair CLR 82.4 64.4 55% 84 29.98 0.0
18 11:47 W 5 10.00 Partly Cloudy SCT120 82.4 68 62% 85 29.98 0.0
18 10:47 Calm 10.00 Mostly Cloudy BKN120 78.8 68 70% 81 29.98 0.0
18 09:47 Calm 10.00 Mostly Cloudy BKN120 77 71.6 83% 78 29.98 0.0
18 08:47 Calm 10.00 Fair CLR 75.2 75.2 100% 73 29.97 0.0
18 07:47 Calm 10.00 Partly Cloudy SCT100 73.4 71.6 94% 29.95 0.0
18 06:47 Calm 10.00 Fair CLR 71.6 69.8 94% 29.91 0.0
18 05:55 Calm 10.00 Partly Cloudy SCT100 73.4 73.4 100% 29.9 0.0
18 05:35 Calm 10.00 Mostly Cloudy BKN100 73.4 73.4 100% 29.9 0.0
18 05:15 Calm 10.00 Partly Cloudy SCT110 73.4 73.4 100% 29.9 0.0
18 04:55 NW 5 10.00 Partly Cloudy SCT110 73.4 73.4 100% 29.88 0.0
18 04:35 NW 3 10.00 Mostly Cloudy BKN110 73.4 73.4 100% 29.88 0.0
18 04:15 NW 3 10.00 Overcast OVC110 0 0 0% 29.88 0.0
18 03:55 Calm 10.00 Overcast OVC110 0 0 0% 29.88 0.0
18 03:35 Calm 10.00 Mostly Cloudy BKN100 0 0 0% 29.87 0.0
18 03:15 Calm 10.00 Fair CLR 0 0 0% 29.87 0.0
18 02:55 NW 3 10.00 Fair CLR 0 0 0% 29.88 0.0
18 02:35 N 3 10.00 Fair CLR 0 0 0% 29.87 0.0
18 02:15 Calm 10.00 Fair CLR 0 0 0% 29.88 0.0
18 01:55 Calm 10.00 Fair CLR 0 0 0% 29.88 0.0
18 01:35 Calm 10.00 Partly Cloudy SCT120 0 0 0% 29.88 0.0
18 01:15 Calm 10.00 Partly Cloudy SCT120 0 0 0% 29.87 0.0
18 00:55 SE 3 10.00 Partly Cloudy SCT095 SCT110 0 0 0% 29.86 0.0
18 00:35 Calm 10.00 Partly Cloudy SCT095 SCT110 0 0 0% 29.88 0.0
18 00:15 Calm 10.00 Partly Cloudy SCT070 SCT080 0 0 0% 29.88 0.0
17 23:55 Calm 10.00 Mostly Cloudy SCT070 SCT080 BKN090 0 0 0% 29.88 0.0
17 23:35 Calm 10.00 Mostly Cloudy SCT080 BKN090 BKN110 77 77 100% 78 29.88 0.0
17 23:15 Calm 10.00 Overcast SCT055 OVC100 0 0 0% 29.88 0.0
17 22:55 N 3 10.00 Overcast BKN060 OVC100 0 0 0% 29.89 0.0
17 22:35 NE 5 10.00 Partly Cloudy SCT060 SCT090 SCT120 0 0 0% 29.88 0.0
17 22:15 NE 3 10.00 Partly Cloudy SCT080 SCT090 SCT120 0 0 0% 29.88 0.0
17 20:47 Calm 10.00 Fair CLR 75.2 75.2 100% 73 29.83 0.0
17 19:47 S 6 10.00 Fair CLR 80.6 80.6 100% 89 29.83 0.0
17 18:47 S 6 10.00 Overcast BKN090 OVC110 77 77 100% 78 29.83 0.0
17 17:47 SW 9 10.00 Mostly Cloudy SCT070 BKN120 78.8 78.8 100% 83 29.82 0.0
17 16:47 SW 9 10.00 Mostly Cloudy SCT070 BKN120 95 64.4 36% 97 29.78 0.0
17 15:47 SW 9 10.00 Fair CLR 96.8 62.6 32% 98 29.8 0.0
17 14:47 SW 10 10.00 Partly Cloudy SCT055 96.8 66.2 37% 100 29.83 0.0
17 13:47 W 8 10.00 Mostly Cloudy SCT055 BKN110 95 68 41% 100 29.85 0.0
17 12:47 SW 10 G 16 0.00 Fair CLR 95 66.2 39% 98 29.87 0.0
17 11:47 W 9 10.00 Fair CLR 93.2 66.2 41% 96 29.88 0.0
17 10:47 SW 9 10.00 Fair CLR 91.4 69.8 49% 97 29.88 0.0
17 08:47 SW 6 10.00 Fair CLR 86 69.8 59% 91 29.91 0.0
17 07:47 SW 7 10.00 Fair CLR 82.4 69.8 66% 86 29.9 0.0
17 06:47 Calm 10.00 Fair CLR 77 77 100% 78 29.88 0.0
17 05:55 SW 3 10.00 Fair CLR 73.4 73.4 100% 29.86 0.0
17 05:35 Calm 10.00 Fair CLR 0 0 0% 29.86 0.0
17 05:15 S 3 10.00 Fair CLR 0 0 0% 29.85 0.0
17 04:55 Calm 10.00 Fair CLR 75.2 75.2 100% 73 29.84 0.0
17 04:35 Calm 10.00 Fair CLR 77 71.6 83% 78 29.84 0.0
17 04:15 Calm 10.00 Fair CLR 77 71.6 83% 78 29.83 0.0
17 03:55 Calm 10.00 Fair CLR 77 69.8 79% 79 29.83 0.0
17 03:35 Calm 10.00 Partly Cloudy SCT060 SCT070 SCT090 77 69.8 79% 79 29.84 0.0
17 03:15 Calm 10.00 Partly Cloudy SCT065 SCT080 SCT110 77 69.8 79% 79 29.84 0.0
17 02:55 SE 6 10.00 Fair CLR 77 73.4 89% 78 29.84 0.0
17 02:35 Calm 10.00 Partly Cloudy SCT110 77 73.4 89% 78 29.84 0.0
17 02:15 Calm 10.00 Partly Cloudy SCT110 78.8 71.6 79% 82 29.85 0.0
17 01:55 Calm 10.00 Fair CLR 78.8 69.8 74% 81 29.85 0.0
17 01:35 Calm 10.00 Fair CLR 78.8 69.8 74% 81 29.85 0.0
17 01:15 Calm 10.00 Mostly Cloudy BKN110 80.6 68 66% 83 29.86 0.0
17 00:55 Calm 10.00 Mostly Cloudy BKN110 78.8 69.8 74% 81 29.86 0.0
17 00:35 S 3 10.00 Mostly Cloudy BKN110 78.8 69.8 74% 81 29.86 0.0
17 00:15 Calm 10.00 Mostly Cloudy BKN110 80.6 69.8 70% 84 29.86 0.0
16 23:55 Calm 10.00 Mostly Cloudy BKN100 80.6 68 66% 83 29.85 0.0
16 23:35 W 6 10.00 Mostly Cloudy BKN100 80.6 68 66% 83 29.85 0.0
16 23:15 SW 7 10.00 Mostly Cloudy BKN100 78.8 69.8 74% 81 29.86 0.0
16 22:55 SW 5 10.00 Partly Cloudy SCT100 78.8 77 94% 83 29.85 0.0
16 22:35 Calm 10.00 Fair CLR 78.8 77 94% 83 29.84 0.0
16 22:15 Calm 10.00 Fair CLR 78.8 73.4 84% 82 29.84 0.0
16 20:47 Calm 10.00 Overcast OVC090 89.6 53.6 29% 87 29.82 0.0
16 19:47 SW 9 10.00 Mostly Cloudy BKN090 95 66.2 39% 98 29.79 0.0
16 18:47 SW 9 10.00 Fair CLR 75.2 71.6 89% 75 29.77 0.0
16 17:47 SW 9 10.00 Partly Cloudy SCT095 91.4 68 46% 96 29.76 0.0
16 16:47 SW 9 10.00 Partly Cloudy SCT095 91.4 73.4 56% 100 29.76 0.0
16 15:47 SW 9 G 17 10.00 Mostly Cloudy SCT043 BKN090 93.2 71.6 50% 101 29.78 0.0
16 14:47 S 9 10.00 Partly Cloudy SCT085 100.4 64.4 31% 104 29.79 0.0
16 13:47 SW 9 G 17 10.00 Mostly Cloudy SCT075 BKN085 100.4 64.4 31% 104 29.81 0.0
16 12:47 SW 8 10.00 Fair CLR 98.6 66.2 35% 103 29.84 0.0
16 11:47 SW 9 10.00 Fair CLR 96.8 69.8 42% 103 29.85 0.0
16 10:47 W 8 10.00 Fair CLR 93.2 69.8 47% 99 29.85 0.0
16 09:47 Calm 10.00 Fair CLR 87.8 71.6 59% 94 29.87 0.0
16 08:47 Calm 10.00 Fair CLR 82.4 71.6 70% 87 29.89 0.0
16 07:47 Calm 10.00 Fair CLR 78.8 78.8 100% 83 29.88 0.0
16 06:47 Calm 10.00 Fair CLR 73.4 73.4 100% 29.87 0.0
16 05:55 Calm 10.00 Fair CLR 0 0 0% 29.85 0.0
16 05:35 Calm 10.00 Fair CLR 0 0 0% 29.85 0.0
16 05:15 Calm 10.00 Fair CLR 0 0 0% 29.85 0.0
16 04:55 Calm 10.00 Fair CLR 0 0 0% 29.85 0.0
16 04:35 SE 3 10.00 Fair CLR 0 0 0% 29.85 0.0
16 04:15 Calm 10.00 Fair CLR 0 0 0% 29.84 0.0
16 03:55 Calm 10.00 Fair CLR 0 0 0% 29.84 0.0
16 03:35 S 5 10.00 Fair CLR 0 0 0% 29.84 0.0
16 03:15 Calm 10.00 Fair CLR 73.4 73.4 100% 29.83 0.0
16 02:55 S 3 10.00 Fair CLR 75.2 69.8 83% 75 29.84 0.0
16 02:35 SE 3 10.00 Fair CLR 73.4 73.4 100% 29.83 0.0
16 02:15 S 3 10.00 Fair CLR 73.4 71.6 94% 29.83 0.0
16 01:55 S 3 10.00 Fair CLR 75.2 69.8 83% 75 29.83 0.0
16 01:35 SE 3 10.00 Fair CLR 77 69.8 79% 79 29.83 0.0
16 01:15 S 3 10.00 Fair CLR 75.2 69.8 83% 75 29.83 0.0
16 00:55 S 3 10.00 Fair CLR 77 69.8 79% 79 29.83 0.0
16 00:35 SE 3 10.00 Fair CLR 77 69.8 79% 79 29.84 0.0
16 00:15 Calm 10.00 Fair CLR 78.8 68 70% 81 29.83 0.0
15 23:55 Calm 10.00 Fair CLR 77 69.8 79% 79 29.84 0.0
15 23:35 Calm 10.00 Fair CLR 78.8 69.8 74% 81 29.84 0.0
15 23:15 Calm 10.00 Fair CLR 78.8 69.8 74% 81 29.85 0.0
15 22:55 Calm 10.00 Fair CLR 78.8 69.8 74% 81 29.86 0.0
15 22:35 S 3 10.00 Fair CLR 78.8 69.8 74% 81 29.87 0.0
15 22:15 Calm 10.00 Fair CLR 78.8 69.8 74% 81 29.86 0.0
Date Time (edt) Wind (mph) Vis. (mi.) Weather Sky Cond. Air Dwpt Max. Min. Relative Humidity Wind Chill (°F) Heat Index (°F) altimeter (in) sea level (mb) 1 hr 3 hr 6 hr
6 hour
Temperature (ºF) Pressure Precipitation (in)